San Angelo, TX

6:38 PM CDT on April 29, 2017 (GMT -0500)
San Angelo Regional-Mathis

Weather History for KSJT - March, 2014

Change the Weather History Date:

Monday, March 17, 2014

  Actual Average Record
Temperature  
Mean Temperature 52 °F 58 °F  
Max Temperature 76 °F 71 °F 98 °F (1908)
Min Temperature 28 °F 45 °F 23 °F (1947)
Degree Days  
Heating Degree Days 13 8  
Month to date heating degree days 204 167  
Since 1 July heating degree days 2324 2128  
Cooling Degree Days 0 1  
Month to date cooling degree days 13 14  
Year to date cooling degree days 16 19  
Growing Degree Days 2 (Base 50)    
Moisture  
Dew Point 20 °F    
Average Humidity 40    
Maximum Humidity 69    
Minimum Humidity 11    
Precipitation  
Precipitation 0.00 in 0.05 in 2.05 in (2008)
Month to date precipitation 0.02 0.85  
Year to date precipitation 0.08 3.13  
Snow  
Snow 0.00 in 0.00 in 0.00 in (2002)
Month to date snowfall T 0.1  
Since 1 July snowfall 1.6 2.2  
Snow Depth 0.00 in    
Sea Level Pressure  
Sea Level Pressure 29.90 in    
Wind  
Wind Speed 11 mph (SW)    
Max Wind Speed 23 mph    
Max Gust Speed 31 mph    
Visibility 10 miles    
Events      
T = Trace of Precipitation, MM = Missing Value Source: NWS Daily Summary

Daily Weather History Graph

Daily Weather History Graph

Search for Another Location

Airport or City:

Trip Planner

Search our weather history database for the weather conditions in past years. The results will help you decide how hot, cold, wet, or windy it might be!

Date:

Astronomy

Mar. 17, 2014 Rise Set
Actual Time 7:49 AM CDT 7:51 PM CDT
Civil Twilight 7:25 AM CDT 8:15 PM CDT
Nautical Twilight 6:57 AM CDT 8:43 PM CDT
Astronomical Twilight 6:28 AM CDT 9:12 PM CDT
Moon 9:03 PM CDT (3/17) 8:11 AM CDT (3/17)
Length of Visible Light 12h 50m
Length of Day
12h 02m
Full, 99% of the Moon is Illuminated
Mar 17
Full
Mar 23
Last Quarter
Mar 30
New
Apr 7
First Quarter
Apr 15
Full

Hourly Weather History & Observations

Time (CDT) Temp. Windchill Dew Point Humidity Pressure Visibility Wind Dir Wind Speed Gust Speed Precip Events Conditions
12:51 AM 39.0 °F - 24.1 °F 55% 30.14 in 10.0 mi Calm Calm - N/A   Clear
1:51 AM 32.0 °F 28.7 °F 21.0 °F 64% 30.12 in 10.0 mi SW 3.5 mph - N/A   Clear
2:51 AM 35.1 °F 27.9 °F 21.9 °F 59% 30.11 in 10.0 mi West 9.2 mph - N/A   Clear
3:51 AM 34.0 °F 27.2 °F 21.9 °F 61% 30.09 in 10.0 mi West 8.1 mph - N/A   Clear
4:51 AM 30.9 °F 24.3 °F 19.9 °F 64% 30.06 in 10.0 mi West 6.9 mph - N/A   Clear
5:51 AM 32.0 °F 23.6 °F 21.0 °F 64% 30.06 in 10.0 mi West 10.4 mph - N/A   Clear
6:51 AM 30.0 °F - 19.9 °F 66% 30.06 in 10.0 mi Calm Calm - N/A   Clear
7:51 AM 28.0 °F - 19.0 °F 69% 30.06 in 10.0 mi Calm Calm - N/A   Clear
8:51 AM 33.1 °F 26.1 °F 21.0 °F 61% 30.06 in 10.0 mi West 8.1 mph - N/A   Clear
9:51 AM 43.0 °F 38.8 °F 23.0 °F 45% 30.04 in 10.0 mi WSW 6.9 mph - N/A   Clear
10:51 AM 51.1 °F - 23.0 °F 33% 30.02 in 10.0 mi WSW 10.4 mph - N/A   Clear
11:51 AM 55.9 °F - 18.0 °F 23% 29.99 in 10.0 mi SW 6.9 mph - N/A   Clear
12:51 PM 61.0 °F - 16.0 °F 17% 29.95 in 10.0 mi SW 10.4 mph - N/A   Clear
1:51 PM 66.0 °F - 17.1 °F 15% 29.88 in 10.0 mi SSW 9.2 mph 20.7 mph N/A   Clear
2:51 PM 71.1 °F - 18.0 °F 13% 29.81 in 10.0 mi SSW 15.0 mph 19.6 mph N/A   Clear
3:51 PM 73.9 °F - 18.0 °F 12% 29.76 in 10.0 mi SSW 13.8 mph 23.0 mph N/A   Clear
4:51 PM 75.0 °F - 18.0 °F 12% 29.73 in 10.0 mi SSW 13.8 mph 25.3 mph N/A   Clear
5:51 PM 75.0 °F - 19.0 °F 12% 29.69 in 10.0 mi SSW 16.1 mph 23.0 mph N/A   Clear
6:51 PM 73.0 °F - 19.0 °F 13% 29.67 in 10.0 mi South 16.1 mph - N/A   Clear
7:51 PM 69.1 °F - 19.9 °F 15% 29.66 in 10.0 mi South 13.8 mph - N/A   Clear
8:51 PM 64.9 °F - 21.0 °F 19% 29.64 in 10.0 mi South 12.7 mph - N/A   Clear
9:51 PM 63.0 °F - 21.0 °F 20% 29.62 in 10.0 mi South 18.4 mph 25.3 mph N/A   Clear
10:51 PM 63.0 °F - 19.9 °F 19% 29.61 in 10.0 mi South 21.9 mph 29.9 mph N/A   Clear
11:51 PM 60.1 °F - 21.0 °F 22% 29.60 in 10.0 mi SSW 18.4 mph 26.5 mph N/A   Clear